Time,TemperatureF,DewpointF,PressureIn,WindDirection,WindDirectionDegrees,WindSpeedMPH,WindSpeedGustMPH,Humidity,HourlyPrecipIn,Conditions,Clouds,dailyrainin,SoftwareType,DateUTC
2013-06-02 00:06:00,75.6,43.7,29.15,SE,140,8.1,22.8,32,0.04,,,0.00,VWS V13.01,2013-06-02 04:06:00,
2013-06-02 00:11:00,75.7,43.8,29.15,ENE,68,5.4,22.8,32,0.04,,,0.00,VWS V13.01,2013-06-02 04:11:00,
2013-06-02 00:16:00,75.6,43.7,29.15,SSE,147,8.3,22.8,32,0.04,,,0.00,VWS V13.01,2013-06-02 04:16:00,
2013-06-02 00:21:00,75.6,43.7,29.15,SSE,156,7.6,22.8,32,0.04,,,0.00,VWS V13.01,2013-06-02 04:21:00,
2013-06-02 00:26:00,75.4,43.5,29.15,West,262,5.4,22.8,32,0.04,,,0.00,VWS V13.01,2013-06-02 04:26:00,
2013-06-02 00:31:00,75.4,44.3,29.15,NNE,27,2.2,22.8,33,0.04,,,0.00,VWS V13.01,2013-06-02 04:31:00,
2013-06-02 00:36:00,75.2,44.2,29.15,WNW,287,2.7,22.8,33,0.04,,,0.00,VWS V13.01,2013-06-02 04:36:00,
2013-06-02 00:41:00,75.4,43.5,29.15,NW,305,8.3,22.8,32,0.04,,,0.00,VWS V13.01,2013-06-02 04:41:00,
2013-06-02 00:46:00,75.4,43.5,29.15,NW,311,11.0,22.8,32,0.04,,,0.00,VWS V13.01,2013-06-02 04:46:00,
2013-06-02 00:51:00,75.6,43.7,29.15,SW,232,10.5,22.8,32,0.04,,,0.00,VWS V13.01,2013-06-02 04:51:00,
2013-06-02 00:56:00,75.6,43.7,29.15,WSW,252,5.8,22.8,32,0.04,,,0.00,VWS V13.01,2013-06-02 04:56:00,
2013-06-02 01:01:00,75.4,43.5,29.15,South,187,2.7,22.8,32,0.04,,,0.00,VWS V13.01,2013-06-02 05:01:00,
2013-06-02 01:06:00,75.4,43.5,29.15,West,260,8.7,22.8,32,0.04,,,0.00,VWS V13.01,2013-06-02 05:06:00,
2013-06-02 01:11:00,75.6,43.7,29.18,WSW,249,8.7,22.8,32,0.04,,,0.00,VWS V13.01,2013-06-02 05:11:00,
2013-06-02 01:16:00,75.4,43.5,29.18,SSW,213,9.6,22.8,32,0.04,,,0.00,VWS V13.01,2013-06-02 05:16:00,
2013-06-02 01:21:00,75.4,44.3,29.18,WSW,238,15.0,22.8,33,0.04,,,0.00,VWS V13.01,2013-06-02 05:21:00,
2013-06-02 01:26:00,75.4,44.3,29.18,WSW,249,6.3,22.8,33,0.04,,,0.00,VWS V13.01,2013-06-02 05:26:00,
2013-06-02 01:31:00,75.4,44.3,29.18,WSW,244,4.0,22.8,33,0.04,,,0.00,VWS V13.01,2013-06-02 05:31:00,
2013-06-02 01:36:00,75.2,44.2,29.18,North,0,3.6,22.8,33,0.04,,,0.00,VWS V13.01,2013-06-02 05:36:00,
2013-06-02 01:41:00,75.2,44.2,29.18,WSW,246,5.8,22.8,33,0.04,,,0.00,VWS V13.01,2013-06-02 05:41:00,
2013-06-02 01:46:00,75.2,44.2,29.18,SW,218,3.1,22.8,33,0.04,,,0.00,VWS V13.01,2013-06-02 05:46:00,
2013-06-02 01:51:00,75.2,44.2,29.18,SW,220,3.6,22.8,33,0.04,,,0.00,VWS V13.01,2013-06-02 05:51:00,
2013-06-02 01:56:00,75.0,44.8,29.18,WSW,246,4.9,22.8,34,0.04,,,0.00,VWS V13.01,2013-06-02 05:56:00,
2013-06-02 02:01:00,75.0,44.8,29.18,SW,223,5.8,22.8,34,0.04,,,0.00,VWS V13.01,2013-06-02 06:01:00,
2013-06-02 02:06:00,74.5,45.8,29.18,NW,307,14.1,22.8,36,0.04,,,0.00,VWS V13.01,2013-06-02 06:06:00,
2013-06-02 02:11:00,73.6,45.7,29.18,NW,316,5.4,22.8,37,0.04,,,0.00,VWS V13.01,2013-06-02 06:11:00,
2013-06-02 02:16:00,73.0,46.6,29.18,NW,308,4.0,22.8,39,0.04,,,0.00,VWS V13.01,2013-06-02 06:16:00,
2013-06-02 02:21:00,72.5,47.5,29.18,NNW,336,6.3,22.8,41,0.04,,,0.00,VWS V13.01,2013-06-02 06:21:00,
2013-06-02 02:26:00,72.1,47.2,29.18,NNW,332,3.1,22.8,41,0.04,,,0.00,VWS V13.01,2013-06-02 06:26:00,
2013-06-02 02:31:00,72.0,47.0,29.18,WNW,295,5.4,22.8,41,0.04,,,0.00,VWS V13.01,2013-06-02 06:31:00,
2013-06-02 02:36:00,71.8,46.8,29.18,West,262,3.1,22.8,41,0.04,,,0.00,VWS V13.01,2013-06-02 06:36:00,
2013-06-02 02:41:00,71.6,47.3,29.18,NW,324,6.3,22.8,42,0.04,,,0.00,VWS V13.01,2013-06-02 06:41:00,
2013-06-02 02:46:00,71.6,47.3,29.18,NNW,343,5.8,22.8,42,0.04,,,0.00,VWS V13.01,2013-06-02 06:46:00,
2013-06-02 02:51:00,71.4,47.8,29.18,WNW,290,6.3,22.8,43,0.04,,,0.00,VWS V13.01,2013-06-02 06:51:00,
2013-06-02 02:56:00,71.4,47.8,29.18,NW,308,3.1,22.8,43,0.04,,,0.00,VWS V13.01,2013-06-02 06:56:00,
2013-06-02 03:01:00,71.2,47.6,29.18,NW,313,10.1,22.8,43,0.04,,,0.00,VWS V13.01,2013-06-02 07:01:00,
2013-06-02 03:06:00,71.2,47.6,29.18,West,280,8.1,22.8,43,0.04,,,0.00,VWS V13.01,2013-06-02 07:06:00,
2013-06-02 03:11:00,71.1,47.5,29.18,NW,322,4.9,22.8,43,0.04,,,0.00,VWS V13.01,2013-06-02 07:11:00,
2013-06-02 03:16:00,71.2,47.6,29.18,North,357,3.6,22.8,43,0.04,,,0.00,VWS V13.01,2013-06-02 07:16:00,
2013-06-02 03:21:00,71.2,47.6,29.18,NNW,334,5.4,22.8,43,0.04,,,0.00,VWS V13.01,2013-06-02 07:21:00,
2013-06-02 03:26:00,71.2,47.6,29.18,NNW,333,3.6,22.8,43,0.04,,,0.00,VWS V13.01,2013-06-02 07:26:00,
2013-06-02 03:32:00,71.2,47.6,29.18,WNW,286,3.1,22.8,43,0.04,,,0.00,VWS V13.01,2013-06-02 07:32:00,
2013-06-02 03:37:00,71.4,47.2,29.18,WNW,293,2.7,22.8,42,0.04,,,0.00,VWS V13.01,2013-06-02 07:37:00,
2013-06-02 03:42:00,71.4,46.5,29.18,WSW,251,8.1,22.8,41,0.04,,,0.00,VWS V13.01,2013-06-02 07:42:00,
2013-06-02 03:47:00,71.6,45.4,29.18,WSW,240,2.2,22.8,39,0.04,,,0.00,VWS V13.01,2013-06-02 07:47:00,
2013-06-02 03:52:00,71.6,44.7,29.18,West,266,3.1,22.8,38,0.04,,,0.00,VWS V13.01,2013-06-02 07:52:00,
2013-06-02 03:57:00,71.6,44.7,29.18,WNW,300,2.7,22.8,38,0.04,,,0.00,VWS V13.01,2013-06-02 07:57:00,
2013-06-02 04:02:00,71.6,44.0,29.18,West,280,2.7,22.8,37,0.04,,,0.00,VWS V13.01,2013-06-02 08:02:00,
2013-06-02 04:07:00,71.6,43.3,29.18,WNW,289,2.2,22.8,36,0.04,,,0.00,VWS V13.01,2013-06-02 08:07:00,
2013-06-02 04:12:00,71.6,43.3,29.15,West,267,0.0,22.8,36,0.04,,,0.00,VWS V13.01,2013-06-02 08:12:00,
2013-06-02 04:17:00,71.6,42.5,29.15,SW,215,3.1,22.8,35,0.04,,,0.00,VWS V13.01,2013-06-02 08:17:00,
2013-06-02 04:22:00,71.6,41.8,29.15,NNW,335,3.6,22.8,34,0.04,,,0.00,VWS V13.01,2013-06-02 08:22:00,
2013-06-02 04:27:00,71.6,41.8,29.18,NW,322,2.7,22.8,34,0.04,,,0.00,VWS V13.01,2013-06-02 08:27:00,
2013-06-02 04:32:00,71.4,41.6,29.18,NW,324,0.0,22.8,34,0.04,,,0.00,VWS V13.01,2013-06-02 08:32:00,
2013-06-02 04:37:00,71.4,42.4,29.18,WNW,283,0.0,22.8,35,0.04,,,0.00,VWS V13.01,2013-06-02 08:37:00,
2013-06-02 04:42:00,71.1,42.8,29.18,NW,316,3.6,22.8,36,0.04,,,0.00,VWS V13.01,2013-06-02 08:42:00,
2013-06-02 04:47:00,70.7,43.2,29.18,NW,314,7.2,22.8,37,0.04,,,0.00,VWS V13.01,2013-06-02 08:47:00,
2013-06-02 04:52:00,70.7,43.9,29.18,NNW,332,4.0,22.8,38,0.04,,,0.00,VWS V13.01,2013-06-02 08:52:00,
2013-06-02 04:57:00,70.5,43.7,29.15,NW,322,3.6,22.8,38,0.04,,,0.00,VWS V13.01,2013-06-02 08:57:00,
2013-06-02 05:02:00,70.3,44.2,29.15,NW,322,4.0,22.8,39,0.04,,,0.00,VWS V13.01,2013-06-02 09:02:00,
2013-06-02 05:07:00,70.2,44.7,29.15,WNW,294,5.4,22.8,40,0.04,,,0.00,VWS V13.01,2013-06-02 09:07:00,
2013-06-02 05:12:00,70.0,45.2,29.18,NNW,338,3.6,22.8,41,0.04,,,0.00,VWS V13.01,2013-06-02 09:12:00,
2013-06-02 05:17:00,70.0,45.9,29.18,NW,314,8.3,22.8,42,0.04,,,0.00,VWS V13.01,2013-06-02 09:17:00,
2013-06-02 05:22:00,69.8,45.7,29.18,NNW,335,4.9,22.8,42,0.04,,,0.00,VWS V13.01,2013-06-02 09:22:00,
2013-06-02 05:27:00,69.6,46.2,29.18,NNE,15,4.9,22.8,43,0.04,,,0.00,VWS V13.01,2013-06-02 09:27:00,
2013-06-02 05:32:00,69.6,46.2,29.18,NW,316,2.2,22.8,43,0.04,,,0.00,VWS V13.01,2013-06-02 09:32:00,
2013-06-02 05:37:00,69.4,46.0,29.18,NNW,338,4.5,22.8,43,0.04,,,0.00,VWS V13.01,2013-06-02 09:37:00,
2013-06-02 05:42:00,69.4,46.0,29.18,NW,325,7.6,22.8,43,0.04,,,0.00,VWS V13.01,2013-06-02 09:42:00,
2013-06-02 05:47:00,69.4,46.0,29.18,NW,304,3.6,22.8,43,0.04,,,0.00,VWS V13.01,2013-06-02 09:47:00,
2013-06-02 05:52:00,69.4,45.4,29.18,WNW,294,4.5,22.8,42,0.04,,,0.00,VWS V13.01,2013-06-02 09:52:00,
2013-06-02 05:57:00,69.4,45.4,29.18,NNW,338,4.0,22.8,42,0.04,,,0.00,VWS V13.01,2013-06-02 09:57:00,
2013-06-02 06:02:00,69.4,45.4,29.18,North,353,4.0,22.8,42,0.04,,,0.00,VWS V13.01,2013-06-02 10:02:00,
2013-06-02 06:07:00,69.4,45.4,29.18,NW,317,2.7,22.8,42,0.04,,,0.00,VWS V13.01,2013-06-02 10:07:00,
2013-06-02 06:12:00,69.4,45.4,29.18,North,357,4.0,22.8,42,0.04,,,0.00,VWS V13.01,2013-06-02 10:12:00,
2013-06-02 06:17:00,69.4,45.4,29.18,North,353,2.7,22.8,42,0.04,,,0.00,VWS V13.01,2013-06-02 10:17:00,
2013-06-02 06:22:00,69.4,45.4,29.18,North,349,2.7,22.8,42,0.04,,,0.00,VWS V13.01,2013-06-02 10:22:00,
2013-06-02 06:27:00,69.4,46.0,29.18,NNW,336,4.9,22.8,43,0.04,,,0.00,VWS V13.01,2013-06-02 10:27:00,
2013-06-02 06:32:00,69.3,45.8,29.18,NNW,330,5.4,22.8,43,0.04,,,0.00,VWS V13.01,2013-06-02 10:32:00,
2013-06-02 06:37:00,69.3,45.8,29.18,NNW,336,3.1,22.8,43,0.04,,,0.00,VWS V13.01,2013-06-02 10:37:00,
2013-06-02 06:42:00,69.3,45.8,29.21,NNW,329,2.7,22.8,43,0.04,,,0.00,VWS V13.01,2013-06-02 10:42:00,
2013-06-02 06:47:00,69.3,46.4,29.21,NNW,332,4.9,22.8,44,0.04,,,0.00,VWS V13.01,2013-06-02 10:47:00,
2013-06-02 06:52:00,69.1,46.3,29.21,NNW,348,2.7,22.8,44,0.04,,,0.00,VWS V13.01,2013-06-02 10:52:00,
2013-06-02 06:57:00,69.1,46.3,29.21,NW,321,3.6,22.8,44,0.04,,,0.00,VWS V13.01,2013-06-02 10:57:00,
2013-06-02 07:02:00,69.1,46.3,29.21,NW,326,4.0,22.8,44,0.04,,,0.00,VWS V13.01,2013-06-02 11:02:00,
2013-06-02 07:07:00,69.1,46.3,29.21,NW,319,3.1,22.8,44,0.04,,,0.00,VWS V13.01,2013-06-02 11:07:00,
2013-06-02 07:12:00,69.1,46.3,29.21,WSW,255,0.0,22.8,44,0.04,,,0.00,VWS V13.01,2013-06-02 11:12:00,
2013-06-02 07:17:00,69.3,46.4,29.21,WNW,285,0.0,22.8,44,0.04,,,0.00,VWS V13.01,2013-06-02 11:17:00,
2013-06-02 07:22:00,69.3,46.4,29.21,NW,306,0.0,22.8,44,0.04,,,0.00,VWS V13.01,2013-06-02 11:22:00,
2013-06-02 07:27:00,69.3,46.4,29.21,NW,308,3.1,22.8,44,0.04,,,0.00,VWS V13.01,2013-06-02 11:27:00,
2013-06-02 07:32:00,69.3,46.4,29.21,NW,318,4.0,22.8,44,0.04,,,0.00,VWS V13.01,2013-06-02 11:32:00,
2013-06-02 07:37:00,69.3,46.4,29.21,WNW,289,0.0,22.8,44,0.04,,,0.00,VWS V13.01,2013-06-02 11:37:00,
2013-06-02 07:42:00,69.3,45.8,29.21,West,272,0.0,22.8,43,0.04,,,0.00,VWS V13.01,2013-06-02 11:42:00,
2013-06-02 07:47:00,69.4,46.0,29.21,NNW,331,0.0,22.8,43,0.04,,,0.00,VWS V13.01,2013-06-02 11:47:00,
2013-06-02 07:52:00,69.6,46.2,29.21,WNW,288,3.6,22.8,43,0.04,,,0.00,VWS V13.01,2013-06-02 11:52:00,
2013-06-02 07:57:00,69.8,45.7,29.18,NNW,328,0.0,22.8,42,0.04,,,0.00,VWS V13.01,2013-06-02 11:57:00,
2013-06-02 08:02:00,69.8,45.1,29.18,NW,312,2.7,22.8,41,0.04,,,0.00,VWS V13.01,2013-06-02 12:02:00,
2013-06-02 08:07:00,69.8,44.4,29.18,NW,309,0.0,22.8,40,0.04,,,0.00,VWS V13.01,2013-06-02 12:07:00,
2013-06-02 08:12:00,69.8,44.4,29.18,NW,314,0.0,22.8,40,0.04,,,0.00,VWS V13.01,2013-06-02 12:12:00,
2013-06-02 08:17:00,69.8,42.4,29.18,WSW,237,2.7,22.8,37,0.04,,,0.00,VWS V13.01,2013-06-02 12:17:00,
2013-06-02 08:22:00,70.0,43.2,29.18,WNW,289,0.0,22.8,38,0.04,,,0.00,VWS V13.01,2013-06-02 12:22:00,
2013-06-02 08:27:00,70.0,42.5,29.21,WSW,250,2.7,22.8,37,0.04,,,0.00,VWS V13.01,2013-06-02 12:27:00,
2013-06-02 08:32:00,70.2,42.7,29.21,WSW,237,3.1,22.8,37,0.04,,,0.00,VWS V13.01,2013-06-02 12:32:00,
2013-06-02 08:37:00,70.3,42.9,29.21,NW,308,2.7,22.8,37,0.04,,,0.00,VWS V13.01,2013-06-02 12:37:00,
2013-06-02 08:42:00,70.3,41.4,29.21,WSW,253,0.0,22.8,35,0.04,,,0.00,VWS V13.01,2013-06-02 12:42:00,
2013-06-02 08:47:00,70.3,40.7,29.21,WSW,243,3.6,22.8,34,0.04,,,0.00,VWS V13.01,2013-06-02 12:47:00,
2013-06-02 08:52:00,70.2,40.5,29.21,SW,222,5.4,22.8,34,0.04,,,0.00,VWS V13.01,2013-06-02 12:52:00,
2013-06-02 08:57:00,70.3,40.7,29.21,West,265,0.0,22.8,34,0.04,,,0.00,VWS V13.01,2013-06-02 12:57:00,
2013-06-02 09:02:00,70.5,40.8,29.21,WNW,298,0.0,22.8,34,0.04,,,0.00,VWS V13.01,2013-06-02 13:02:00,
2013-06-02 09:07:00,71.1,41.3,29.21,WNW,298,0.0,22.8,34,0.04,,,0.00,VWS V13.01,2013-06-02 13:07:00,
2013-06-02 09:12:00,71.6,41.0,29.21,NNW,329,0.0,22.8,33,0.04,,,0.00,VWS V13.01,2013-06-02 13:12:00,
2013-06-02 09:17:00,71.8,40.4,29.21,West,268,0.0,22.8,32,0.04,,,0.00,VWS V13.01,2013-06-02 13:17:00,
2013-06-02 09:22:00,71.4,40.0,29.21,NNW,338,2.2,22.8,32,0.04,,,0.00,VWS V13.01,2013-06-02 13:22:00,
2013-06-02 09:27:00,71.1,39.7,29.21,North,350,2.2,22.8,32,0.04,,,0.00,VWS V13.01,2013-06-02 13:27:00,
2013-06-02 09:32:00,71.1,39.7,29.21,NNW,334,3.1,22.8,32,0.04,,,0.00,VWS V13.01,2013-06-02 13:32:00,
2013-06-02 09:37:00,70.9,40.4,29.21,West,281,3.6,22.8,33,0.04,,,0.00,VWS V13.01,2013-06-02 13:37:00,
2013-06-02 09:42:00,70.9,40.4,29.21,West,279,0.0,22.8,33,0.04,,,0.00,VWS V13.01,2013-06-02 13:42:00,
2013-06-02 09:47:00,71.1,40.5,29.21,WNW,287,2.2,22.8,33,0.04,,,0.00,VWS V13.01,2013-06-02 13:47:00,
2013-06-02 09:52:00,71.1,40.5,29.21,NW,312,3.6,22.8,33,0.04,,,0.00,VWS V13.01,2013-06-02 13:52:00,
2013-06-02 09:57:00,70.9,40.4,29.21,NW,311,3.6,22.8,33,0.04,,,0.00,VWS V13.01,2013-06-02 13:57:00,
2013-06-02 10:02:00,70.7,40.2,29.21,NW,326,2.2,22.8,33,0.04,,,0.00,VWS V13.01,2013-06-02 14:02:00,
2013-06-02 10:07:00,70.7,40.2,29.21,NW,308,0.0,22.8,33,0.04,,,0.00,VWS V13.01,2013-06-02 14:07:00,
2013-06-02 10:12:00,70.7,40.2,29.21,NNW,332,0.0,22.8,33,0.04,,,0.00,VWS V13.01,2013-06-02 14:12:00,
2013-06-02 10:17:00,70.7,41.0,29.21,NW,317,0.0,22.8,34,0.04,,,0.00,VWS V13.01,2013-06-02 14:17:00,
2013-06-02 10:22:00,71.1,40.5,29.21,North,353,2.7,22.8,33,0.04,,,0.00,VWS V13.01,2013-06-02 14:22:00,
2013-06-02 10:27:00,71.2,40.7,29.21,West,262,2.2,22.8,33,0.04,,,0.00,VWS V13.01,2013-06-02 14:27:00,
2013-06-02 10:32:00,71.2,40.7,29.21,West,261,0.0,22.8,33,0.04,,,0.00,VWS V13.01,2013-06-02 14:32:00,
2013-06-02 10:37:00,71.1,40.5,29.21,NW,312,2.7,22.8,33,0.04,,,0.00,VWS V13.01,2013-06-02 14:37:00,
2013-06-02 10:42:00,71.1,40.5,29.21,WNW,299,2.2,22.8,33,0.04,,,0.00,VWS V13.01,2013-06-02 14:42:00,
2013-06-02 10:47:00,71.1,40.5,29.21,WNW,299,0.0,22.8,33,0.04,,,0.00,VWS V13.01,2013-06-02 14:47:00,
2013-06-02 10:52:00,71.1,40.5,29.21,WNW,299,0.0,22.8,33,0.04,,,0.00,VWS V13.01,2013-06-02 14:52:00,
2013-06-02 10:57:00,70.9,40.4,29.21,SW,235,4.0,22.8,33,0.04,,,0.00,VWS V13.01,2013-06-02 14:57:00,
2013-06-02 11:02:00,70.7,41.0,29.21,SW,235,0.0,22.8,34,0.04,,,0.00,VWS V13.01,2013-06-02 15:02:00,
2013-06-02 11:08:00,70.5,42.3,29.21,North,353,0.0,22.8,36,0.04,,,0.00,VWS V13.01,2013-06-02 15:08:00,
2013-06-02 11:13:00,70.7,43.2,29.21,North,353,0.0,22.8,37,0.04,,,0.00,VWS V13.01,2013-06-02 15:13:00,
2013-06-02 11:18:00,71.1,43.5,29.21,North,353,0.0,22.8,37,0.04,,,0.00,VWS V13.01,2013-06-02 15:18:00,
2013-06-02 11:23:00,71.2,43.7,29.21,West,273,0.0,22.8,37,0.04,,,0.00,VWS V13.01,2013-06-02 15:23:00,
2013-06-02 11:28:00,71.1,42.0,29.21,West,272,2.2,22.8,35,0.04,,,0.00,VWS V13.01,2013-06-02 15:28:00,
2013-06-02 11:33:00,70.9,41.1,29.21,West,261,0.0,22.8,34,0.04,,,0.00,VWS V13.01,2013-06-02 15:33:00,
2013-06-02 11:38:00,70.9,41.1,29.21,West,261,0.0,22.8,34,0.04,,,0.00,VWS V13.01,2013-06-02 15:38:00,
2013-06-02 11:43:00,70.9,41.1,29.23,NE,39,0.0,22.8,34,0.04,,,0.00,VWS V13.01,2013-06-02 15:43:00,
2013-06-02 11:48:00,70.9,41.9,29.23,NE,35,0.0,22.8,35,0.04,,,0.00,VWS V13.01,2013-06-02 15:48:00,
2013-06-02 11:53:00,70.9,41.9,29.23,NE,35,0.0,22.8,35,0.04,,,0.00,VWS V13.01,2013-06-02 15:53:00,
2013-06-02 11:58:00,70.7,41.7,29.23,SSW,204,2.2,22.8,35,0.04,,,0.00,VWS V13.01,2013-06-02 15:58:00,
2013-06-02 12:03:00,70.7,41.7,29.23,SW,219,4.0,22.8,35,0.04,,,0.00,VWS V13.01,2013-06-02 16:03:00,
2013-06-02 12:08:00,70.7,43.2,29.23,SW,224,3.1,22.8,37,0.04,,,0.00,VWS V13.01,2013-06-02 16:08:00,
2013-06-02 12:13:00,70.3,44.2,29.23,SW,222,3.6,22.8,39,0.04,,,0.00,VWS V13.01,2013-06-02 16:13:00,
2013-06-02 12:18:00,70.0,45.2,29.23,WSW,239,3.1,22.8,41,0.04,,,0.00,VWS V13.01,2013-06-02 16:18:00,
2013-06-02 12:23:00,69.3,45.8,29.23,WSW,248,0.0,22.8,43,0.04,,,0.00,VWS V13.01,2013-06-02 16:23:00,
2013-06-02 12:28:00,69.1,45.7,29.23,WSW,248,0.0,22.8,43,0.04,,,0.00,VWS V13.01,2013-06-02 16:28:00,
2013-06-02 12:33:00,68.9,46.1,29.23,WSW,238,0.0,22.8,44,0.08,,,0.04,VWS V13.01,2013-06-02 16:33:00,
2013-06-02 12:38:00,68.7,46.5,29.23,NW,308,2.7,22.8,45,0.08,,,0.04,VWS V13.01,2013-06-02 16:38:00,
2013-06-02 12:43:00,68.5,47.0,29.23,North,6,2.2,22.8,46,0.08,,,0.04,VWS V13.01,2013-06-02 16:43:00,
2013-06-02 12:48:00,68.7,48.3,29.23,SW,215,0.0,22.8,48,0.08,,,0.04,VWS V13.01,2013-06-02 16:48:00,
2013-06-02 12:53:00,68.9,49.0,29.23,North,0,0.0,22.8,49,0.08,,,0.04,VWS V13.01,2013-06-02 16:53:00,
2013-06-02 12:58:00,69.4,50.5,29.21,North,0,0.0,22.8,51,0.08,,,0.04,VWS V13.01,2013-06-02 16:58:00,
2013-06-02 13:03:00,70.0,51.0,29.21,WSW,241,0.0,22.8,51,0.08,,,0.04,VWS V13.01,2013-06-02 17:03:00,
2013-06-02 13:08:00,70.2,50.7,29.21,WSW,241,0.0,22.8,50,0.08,,,0.04,VWS V13.01,2013-06-02 17:08:00,
2013-06-02 13:13:00,70.5,51.5,29.21,NW,310,2.2,22.8,51,0.08,,,0.04,VWS V13.01,2013-06-02 17:13:00,
2013-06-02 13:18:00,70.9,50.2,29.21,NNE,21,2.2,22.8,48,0.08,,,0.04,VWS V13.01,2013-06-02 17:18:00,
2013-06-02 13:23:00,71.1,49.3,29.21,NNE,21,0.0,22.8,46,0.08,,,0.04,VWS V13.01,2013-06-02 17:23:00,
2013-06-02 13:28:00,71.2,47.6,29.21,SW,231,2.7,22.8,43,0.08,,,0.04,VWS V13.01,2013-06-02 17:28:00,
2013-06-02 13:33:00,71.4,46.5,29.21,WSW,257,0.0,22.8,41,0.08,,,0.04,VWS V13.01,2013-06-02 17:33:00,
2013-06-02 13:38:00,71.6,46.0,29.21,WSW,243,2.7,22.8,40,0.08,,,0.04,VWS V13.01,2013-06-02 17:38:00,
2013-06-02 13:43:00,71.8,45.5,29.21,WSW,243,0.0,22.8,39,0.08,,,0.04,VWS V13.01,2013-06-02 17:43:00,
2013-06-02 13:48:00,72.5,45.5,29.21,WSW,243,0.0,22.8,38,0.08,,,0.04,VWS V13.01,2013-06-02 17:48:00,
2013-06-02 13:53:00,72.9,43.6,29.21,SW,222,0.0,22.8,35,0.08,,,0.04,VWS V13.01,2013-06-02 17:53:00,
2013-06-02 13:58:00,73.0,42.3,29.21,SW,229,0.0,22.8,33,0.08,,,0.04,VWS V13.01,2013-06-02 17:58:00,
2013-06-02 14:03:00,73.0,42.3,29.21,North,353,0.0,22.8,33,0.08,,,0.04,VWS V13.01,2013-06-02 18:03:00,
2013-06-02 14:08:00,73.2,41.6,29.21,North,5,0.0,22.8,32,0.08,,,0.04,VWS V13.01,2013-06-02 18:08:00,
2013-06-02 14:13:00,73.6,41.9,29.18,SSE,147,3.1,22.8,32,0.08,,,0.04,VWS V13.01,2013-06-02 18:13:00,
2013-06-02 14:18:00,74.5,41.9,29.18,East,101,0.0,22.8,31,0.08,,,0.04,VWS V13.01,2013-06-02 18:18:00,
2013-06-02 14:23:00,74.7,40.3,29.18,SW,228,4.9,22.8,29,0.08,,,0.04,VWS V13.01,2013-06-02 18:23:00,
2013-06-02 14:28:00,74.3,40.9,29.18,South,176,0.0,22.8,30,0.08,,,0.04,VWS V13.01,2013-06-02 18:28:00,
2013-06-02 14:33:00,74.3,41.7,29.18,SE,131,0.0,22.8,31,0.08,,,0.04,VWS V13.01,2013-06-02 18:33:00,
2013-06-02 14:38:00,74.8,39.6,29.18,ENE,78,0.0,22.8,28,0.08,,,0.04,VWS V13.01,2013-06-02 18:38:00,
2013-06-02 14:43:00,74.8,38.7,29.18,SE,125,2.7,22.8,27,0.08,,,0.04,VWS V13.01,2013-06-02 18:43:00,
2013-06-02 14:48:00,75.2,37.0,29.18,South,184,0.0,22.8,25,0.08,,,0.04,VWS V13.01,2013-06-02 18:48:00,
2013-06-02 14:53:00,75.6,35.2,29.18,WSW,238,5.4,22.8,23,0.08,,,0.04,VWS V13.01,2013-06-02 18:53:00,
2013-06-02 14:58:00,75.4,33.9,29.18,WNW,284,2.2,22.8,22,0.08,,,0.04,VWS V13.01,2013-06-02 18:58:00,
2013-06-02 15:03:00,75.4,33.9,29.18,North,3,2.2,22.8,22,0.08,,,0.04,VWS V13.01,2013-06-02 19:03:00,
2013-06-02 15:08:00,75.4,33.9,29.18,WSW,240,2.7,22.8,22,0.08,,,0.04,VWS V13.01,2013-06-02 19:08:00,
2013-06-02 15:13:00,75.0,34.7,29.18,SW,218,0.0,22.8,23,0.08,,,0.04,VWS V13.01,2013-06-02 19:13:00,
2013-06-02 15:18:00,74.7,34.4,29.18,NW,312,3.1,22.8,23,0.08,,,0.04,VWS V13.01,2013-06-02 19:18:00,
2013-06-02 15:23:00,74.5,35.4,29.18,WSW,246,0.0,22.8,24,0.08,,,0.04,VWS V13.01,2013-06-02 19:23:00,
2013-06-02 15:28:00,74.7,37.5,29.18,North,0,2.2,22.8,26,0.08,,,0.04,VWS V13.01,2013-06-02 19:28:00,
2013-06-02 15:33:00,74.8,35.7,29.18,SW,219,0.0,22.8,24,0.08,,,0.04,VWS V13.01,2013-06-02 19:33:00,
2013-06-02 15:38:00,75.2,36.0,29.18,NNE,12,0.0,22.8,24,0.08,,,0.04,VWS V13.01,2013-06-02 19:38:00,
2013-06-02 15:43:00,75.4,35.0,29.18,SSW,198,2.7,22.8,23,0.08,,,0.04,VWS V13.01,2013-06-02 19:43:00,
2013-06-02 15:48:00,75.4,36.1,29.18,SW,216,5.8,22.8,24,0.08,,,0.04,VWS V13.01,2013-06-02 19:48:00,
2013-06-02 15:53:00,75.4,35.0,29.18,South,177,0.0,22.8,23,0.08,,,0.04,VWS V13.01,2013-06-02 19:53:00,
2013-06-02 15:58:00,75.4,35.0,29.18,SSW,209,0.0,22.8,23,0.08,,,0.04,VWS V13.01,2013-06-02 19:58:00,
2013-06-02 16:03:00,75.7,35.3,29.18,SW,222,4.9,22.8,23,0.08,,,0.04,VWS V13.01,2013-06-02 20:03:00,
2013-06-02 16:12:00,76.1,34.5,29.18,ESE,106,0.0,22.8,22,0.08,,,0.04,VWS V13.01,2013-06-02 20:12:00,
2013-06-02 16:17:00,77.0,35.3,29.18,WSW,256,2.7,22.8,22,0.08,,,0.04,VWS V13.01,2013-06-02 20:17:00,
2013-06-02 16:22:00,77.4,34.4,29.18,NNW,331,2.2,22.8,21,0.08,,,0.04,VWS V13.01,2013-06-02 20:22:00,
2013-06-02 16:27:00,77.7,34.7,29.18,North,353,0.0,22.8,21,0.08,,,0.04,VWS V13.01,2013-06-02 20:27:00,
2013-06-02 16:32:00,78.4,31.5,29.18,SSE,152,5.8,22.8,18,0.08,,,0.04,VWS V13.01,2013-06-02 20:32:00,
2013-06-02 16:37:00,78.1,33.8,29.18,WSW,248,0.0,22.8,20,0.08,,,0.04,VWS V13.01,2013-06-02 20:37:00,
2013-06-02 16:42:00,78.3,33.9,29.15,SSE,150,0.0,22.8,20,0.08,,,0.04,VWS V13.01,2013-06-02 20:42:00,
2013-06-02 16:47:00,77.7,30.9,29.15,NNW,332,3.6,22.8,18,0.08,,,0.04,VWS V13.01,2013-06-02 20:47:00,
2013-06-02 16:52:00,77.2,33.0,29.15,North,353,0.0,22.8,20,0.08,,,0.04,VWS V13.01,2013-06-02 20:52:00,
2013-06-02 16:57:00,77.5,33.3,29.15,South,182,2.2,22.8,20,0.08,,,0.04,VWS V13.01,2013-06-02 20:57:00,
2013-06-02 17:02:00,77.5,30.7,29.15,WSW,254,2.2,22.8,18,0.08,,,0.04,VWS V13.01,2013-06-02 21:02:00,
2013-06-02 17:11:00,77.7,30.9,29.15,WSW,257,0.0,22.8,18,0.08,,,0.04,VWS V13.01,2013-06-02 21:11:00,
2013-06-02 17:17:00,77.5,33.3,29.15,WNW,295,4.9,22.8,20,0.08,,,0.04,VWS V13.01,2013-06-02 21:17:00,
2013-06-02 17:22:00,77.5,33.3,29.15,West,259,2.7,22.8,20,0.08,,,0.04,VWS V13.01,2013-06-02 21:22:00,
2013-06-02 17:27:00,78.1,31.2,29.15,SSW,192,4.0,22.8,18,0.08,,,0.04,VWS V13.01,2013-06-02 21:27:00,
2013-06-02 17:32:00,77.9,31.0,29.15,SSW,213,6.3,22.8,18,0.08,,,0.04,VWS V13.01,2013-06-02 21:32:00,
2013-06-02 17:37:00,77.2,33.0,29.15,WSW,244,4.0,22.8,20,0.08,,,0.04,VWS V13.01,2013-06-02 21:37:00,
2013-06-02 17:42:00,76.6,33.8,29.15,SSW,207,5.4,22.8,21,0.08,,,0.04,VWS V13.01,2013-06-02 21:42:00,
2013-06-02 17:47:00,76.8,34.0,29.15,SSE,163,3.1,22.8,21,0.08,,,0.04,VWS V13.01,2013-06-02 21:47:00,
2013-06-02 17:52:00,77.4,33.2,29.15,SSW,193,3.6,22.8,20,0.08,,,0.04,VWS V13.01,2013-06-02 21:52:00,
2013-06-02 17:57:00,77.7,33.5,29.15,SW,227,5.8,22.8,20,0.08,,,0.04,VWS V13.01,2013-06-02 21:57:00,
2013-06-02 18:02:00,77.4,33.2,29.15,SSW,210,6.3,22.8,20,0.08,,,0.04,VWS V13.01,2013-06-02 22:02:00,
2013-06-02 18:07:00,77.5,33.3,29.15,WSW,245,2.2,22.8,20,0.08,,,0.04,VWS V13.01,2013-06-02 22:07:00,
2013-06-02 18:12:00,77.9,33.6,29.15,SSE,159,3.1,22.8,20,0.08,,,0.04,VWS V13.01,2013-06-02 22:12:00,
2013-06-02 18:17:00,78.3,33.9,29.15,SW,234,3.6,22.8,20,0.08,,,0.04,VWS V13.01,2013-06-02 22:17:00,
2013-06-02 18:22:00,78.4,31.5,29.15,West,267,2.7,22.8,18,0.08,,,0.04,VWS V13.01,2013-06-02 22:22:00,
2013-06-02 18:27:00,78.4,31.5,29.15,SSW,212,2.7,22.8,18,0.08,,,0.04,VWS V13.01,2013-06-02 22:27:00,
2013-06-02 18:32:00,78.8,30.4,29.15,WSW,240,3.1,22.8,17,0.08,,,0.04,VWS V13.01,2013-06-02 22:32:00,
2013-06-02 18:37:00,78.6,34.2,29.15,SW,230,3.6,22.8,20,0.08,,,0.04,VWS V13.01,2013-06-02 22:37:00,
2013-06-02 18:42:00,78.4,34.1,29.15,South,186,3.1,22.8,20,0.08,,,0.04,VWS V13.01,2013-06-02 22:42:00,
2013-06-02 18:47:00,78.1,33.8,29.15,SSW,206,0.0,22.8,20,0.08,,,0.04,VWS V13.01,2013-06-02 22:47:00,
2013-06-02 18:52:00,78.4,34.1,29.15,South,183,4.5,22.8,20,0.08,,,0.04,VWS V13.01,2013-06-02 22:52:00,
2013-06-02 18:57:00,78.1,33.8,29.15,WSW,245,6.3,22.8,20,0.08,,,0.04,VWS V13.01,2013-06-02 22:57:00,
2013-06-02 19:02:00,77.5,33.3,29.15,SW,228,4.0,22.8,20,0.08,,,0.04,VWS V13.01,2013-06-02 23:02:00,
2013-06-02 19:07:00,77.5,30.7,29.15,WSW,239,4.9,22.8,18,0.08,,,0.04,VWS V13.01,2013-06-02 23:07:00,
2013-06-02 19:12:00,77.5,26.3,29.15,WSW,239,2.7,22.8,15,0.08,,,0.04,VWS V13.01,2013-06-02 23:12:00,
2013-06-02 19:17:00,77.4,26.1,29.15,WSW,237,3.1,22.8,15,0.08,,,0.04,VWS V13.01,2013-06-02 23:17:00,
2013-06-02 19:22:00,77.2,30.4,29.15,SSW,193,3.6,22.8,18,0.08,,,0.04,VWS V13.01,2013-06-02 23:22:00,
2013-06-02 19:27:00,77.0,32.9,29.15,SSW,196,2.7,22.8,20,0.08,,,0.04,VWS V13.01,2013-06-02 23:27:00,
2013-06-02 19:32:00,76.6,33.8,29.15,SE,146,0.0,22.8,21,0.08,,,0.04,VWS V13.01,2013-06-02 23:32:00,
2013-06-02 19:37:00,76.5,34.8,29.15,SSW,195,3.1,22.8,22,0.08,,,0.04,VWS V13.01,2013-06-02 23:37:00,
2013-06-02 19:42:00,76.3,34.7,29.15,South,186,2.2,22.8,22,0.08,,,0.04,VWS V13.01,2013-06-02 23:42:00,
2013-06-02 19:47:00,76.1,34.5,29.15,South,182,0.0,22.8,22,0.08,,,0.04,VWS V13.01,2013-06-02 23:47:00,
2013-06-02 19:52:00,75.9,34.4,29.15,SSE,155,3.6,22.8,22,0.08,,,0.04,VWS V13.01,2013-06-02 23:52:00,
2013-06-02 19:57:00,75.9,34.4,29.15,SE,130,3.1,22.8,22,0.08,,,0.04,VWS V13.01,2013-06-02 23:57:00,
2013-06-02 20:02:00,75.6,37.3,29.15,SE,144,3.1,22.8,25,0.08,,,0.04,VWS V13.01,2013-06-03 00:02:00,
2013-06-02 20:07:00,75.2,39.0,29.15,ESE,120,3.1,22.8,27,0.08,,,0.04,VWS V13.01,2013-06-03 00:07:00,
2013-06-02 20:12:00,74.8,41.4,29.15,ESE,113,3.1,22.8,30,0.08,,,0.04,VWS V13.01,2013-06-03 00:12:00,
2013-06-02 20:17:00,74.5,41.9,29.15,SE,135,2.7,22.8,31,0.08,,,0.04,VWS V13.01,2013-06-03 00:17:00,
2013-06-02 20:22:00,74.3,42.6,29.15,East,96,2.7,22.8,32,0.08,,,0.04,VWS V13.01,2013-06-03 00:22:00,
2013-06-02 20:27:00,74.1,42.4,29.15,East,81,3.6,22.8,32,0.08,,,0.04,VWS V13.01,2013-06-03 00:27:00,
2013-06-02 20:32:00,73.8,42.1,29.15,ESE,111,2.7,22.8,32,0.08,,,0.04,VWS V13.01,2013-06-03 00:32:00,
2013-06-02 20:37:00,73.6,41.9,29.15,East,92,2.7,22.8,32,0.08,,,0.04,VWS V13.01,2013-06-03 00:37:00,
2013-06-02 20:42:00,73.6,42.7,29.15,ESE,117,0.0,22.8,33,0.08,,,0.04,VWS V13.01,2013-06-03 00:42:00,
2013-06-02 20:47:00,73.4,42.6,29.15,SSE,150,3.1,22.8,33,0.08,,,0.04,VWS V13.01,2013-06-03 00:47:00,
2013-06-02 20:52:00,73.4,42.6,29.15,WSW,252,3.1,22.8,33,0.08,,,0.04,VWS V13.01,2013-06-03 00:52:00,
2013-06-02 20:57:00,73.2,43.2,29.18,NNW,343,2.7,22.8,34,0.08,,,0.04,VWS V13.01,2013-06-03 00:57:00,
2013-06-02 21:02:00,73.0,43.8,29.18,NNW,343,0.0,22.8,35,0.08,,,0.04,VWS V13.01,2013-06-03 01:02:00,
2013-06-02 21:07:00,72.7,43.5,29.18,NNW,334,3.1,22.8,35,0.08,,,0.04,VWS V13.01,2013-06-03 01:07:00,
2013-06-02 21:12:00,72.5,46.8,29.18,NW,309,5.4,22.8,40,0.08,,,0.04,VWS V13.01,2013-06-03 01:12:00,
2013-06-02 21:17:00,72.0,47.0,29.18,North,353,5.4,22.8,41,0.08,,,0.04,VWS V13.01,2013-06-03 01:17:00,
2013-06-02 21:22:00,71.4,46.5,29.18,North,357,2.7,22.8,41,0.08,,,0.04,VWS V13.01,2013-06-03 01:22:00,
2013-06-02 21:27:00,71.2,45.7,29.18,NNE,31,2.7,22.8,40,0.08,,,0.04,VWS V13.01,2013-06-03 01:27:00,
2013-06-02 21:32:00,71.2,45.7,29.18,NNW,331,2.7,22.8,40,0.08,,,0.04,VWS V13.01,2013-06-03 01:32:00,
2013-06-02 21:37:00,71.2,45.7,29.18,NNW,331,0.0,22.8,40,0.08,,,0.04,VWS V13.01,2013-06-03 01:37:00,
2013-06-02 21:42:00,71.2,46.4,29.18,SW,229,2.7,22.8,41,0.08,,,0.04,VWS V13.01,2013-06-03 01:42:00,
2013-06-02 21:47:00,70.9,46.0,29.18,SSW,206,3.1,22.8,41,0.08,,,0.04,VWS V13.01,2013-06-03 01:47:00,
2013-06-02 21:52:00,70.2,47.2,29.18,North,357,3.6,22.8,44,0.12,,,0.08,VWS V13.01,2013-06-03 01:52:00,
2013-06-02 21:57:00,69.6,48.5,29.18,NE,54,3.1,22.8,47,0.16,,,0.12,VWS V13.01,2013-06-03 01:57:00,
2013-06-02 22:03:00,69.4,48.9,29.18,NE,55,0.0,22.8,48,0.16,,,0.12,VWS V13.01,2013-06-03 02:03:00,
2013-06-02 22:08:00,69.3,49.3,29.18,NNE,13,0.0,22.8,49,0.16,,,0.12,VWS V13.01,2013-06-03 02:08:00,
2013-06-02 22:13:00,68.9,49.0,29.18,NNE,13,0.0,22.8,49,0.16,,,0.12,VWS V13.01,2013-06-03 02:13:00,
2013-06-02 22:18:00,68.7,48.8,29.18,NNE,13,0.0,22.8,49,0.16,,,0.12,VWS V13.01,2013-06-03 02:18:00,
2013-06-02 22:23:00,68.5,49.2,29.18,NNE,13,0.0,22.8,50,0.16,,,0.12,VWS V13.01,2013-06-03 02:23:00,
2013-06-02 22:28:00,68.5,49.7,29.18,NNE,13,0.0,22.8,51,0.16,,,0.12,VWS V13.01,2013-06-03 02:28:00,
2013-06-02 22:33:00,68.4,50.1,29.18,NNE,13,0.0,22.8,52,0.16,,,0.12,VWS V13.01,2013-06-03 02:33:00,
2013-06-02 22:38:00,68.4,50.6,29.18,NNE,13,0.0,22.8,53,0.16,,,0.12,VWS V13.01,2013-06-03 02:38:00,
2013-06-02 22:43:00,68.2,50.4,29.18,NNE,13,0.0,22.8,53,0.16,,,0.12,VWS V13.01,2013-06-03 02:43:00,
2013-06-02 22:48:00,68.2,51.4,29.18,NE,44,0.0,22.8,55,0.16,,,0.12,VWS V13.01,2013-06-03 02:48:00,
2013-06-02 22:53:00,68.2,51.9,29.18,NE,44,0.0,22.8,56,0.16,,,0.12,VWS V13.01,2013-06-03 02:53:00,
2013-06-02 22:58:00,68.2,51.9,29.18,NE,44,0.0,22.8,56,0.16,,,0.12,VWS V13.01,2013-06-03 02:58:00,
2013-06-02 23:03:00,68.0,52.2,29.18,NE,44,0.0,22.8,57,0.16,,,0.12,VWS V13.01,2013-06-03 03:03:00,
2013-06-02 23:08:00,68.0,52.2,29.18,NE,44,0.0,22.8,57,0.16,,,0.12,VWS V13.01,2013-06-03 03:08:00,
2013-06-02 23:13:00,68.0,52.7,29.21,North,3,2.2,22.8,58,0.16,,,0.12,VWS V13.01,2013-06-03 03:13:00,
2013-06-02 23:18:00,67.6,52.3,29.21,North,3,0.0,22.8,58,0.16,,,0.12,VWS V13.01,2013-06-03 03:18:00,
2013-06-02 23:23:00,67.6,52.3,29.21,North,3,0.0,22.8,58,0.16,,,0.12,VWS V13.01,2013-06-03 03:23:00,
2013-06-02 23:28:00,67.5,52.7,29.21,North,3,0.0,22.8,59,0.16,,,0.12,VWS V13.01,2013-06-03 03:28:00,
2013-06-02 23:33:00,67.3,52.5,29.21,North,3,0.0,22.8,59,0.16,,,0.12,VWS V13.01,2013-06-03 03:33:00,
2013-06-02 23:38:00,67.1,52.3,29.21,North,3,0.0,22.8,59,0.16,,,0.12,VWS V13.01,2013-06-03 03:38:00,
2013-06-02 23:43:00,67.1,52.3,29.21,North,3,0.0,22.8,59,0.16,,,0.12,VWS V13.01,2013-06-03 03:43:00,
2013-06-02 23:48:00,67.3,52.9,29.21,North,3,0.0,22.8,60,0.16,,,0.12,VWS V13.01,2013-06-03 03:48:00,
2013-06-02 23:53:00,67.3,52.9,29.21,North,3,0.0,22.8,60,0.16,,,0.12,VWS V13.01,2013-06-03 03:53:00,
2013-06-02 23:58:00,67.3,53.4,29.21,North,3,0.0,22.8,61,0.16,,,0.12,VWS V13.01,2013-06-03 03:58:00,